Home   Weather   Newcastle upon Tyne   Past weeks
Flag for United Kingdom

Past Weather in Newcastle upon Tyne, England, United Kingdom — Yesterday and Last 2 Weeks

Now
48 °F

Passing clouds.


Feels Like: 43 °F
Forecast: 51 / 40 °F
Wind: 13 mph from North

Location: Newcastle

Current Time: Mar 25, 2019 at 12:46:54 pm

Latest Report: Mar 25, 2019 at 11:50 am


Visibility: N/A

Pressure: 30.48 "Hg

Humidity: 50%

Dew Point: 30 °F

Location of Newcastle upon TyneLocation

Past Weather in Newcastle upon Tyne — Graph

°F

Newcastle upon Tyne Temperature Yesterday

Maximum temperature yesterday: 50 °F (at 1:20 pm)
Minimum temperature yesterday: 36 °F (at 3:50 am)
Average temperature yesterday: 43 °F

High & Low Weather Summary for the Past Weeks

 TemperatureHumidityPressure
High59 °F (Mar 21, 11:20 am)100% (Mar 16, 5:20 am)30.48 "Hg (Mar 16, 5:20 am)
Low32 °F (Mar 16, 6:50 am)47% (Mar 13, 1:20 pm)28.94 "Hg (Mar 16, 3:50 pm)
Average45 °F77%29.85 "Hg
* Reported Mar 10 11:20 am — Mar 25 11:50 am, Newcastle upon Tyne. Weather by CustomWeather, © 2019

Note: Actual official high and low records may vary slightly from our data, if they occured in-between our weather recording intervals... More about our weather records

Advertising

Newcastle upon Tyne Weather History for the Previous 24 Hours

Scroll right to see more
 ConditionsComfort  
Time TempWeatherWind HumidityBarometerVisibility
11:50 am
Mon, Mar 25
48 °FPassing clouds.13 mph50%30.48 "HgN/A
11:20 am50 °FPassing clouds.13 mph47%30.48 "HgN/A
10:50 am50 °FPassing clouds.14 mph50%30.48 "HgN/A
10:20 am48 °FPassing clouds.14 mph54%30.48 "HgN/A
9:50 am48 °FPassing clouds.16 mph54%30.48 "HgN/A
9:20 am46 °FPassing clouds.13 mph62%30.45 "HgN/A
8:50 am45 °FPassing clouds.13 mph66%30.45 "HgN/A
8:20 am43 °FPassing clouds.13 mph66%30.45 "HgN/A
7:50 am41 °FScattered clouds.12 mph70%30.45 "HgN/A
7:20 am39 °FPassing clouds.13 mph75%30.42 "HgN/A
6:50 am37 °FSunny.13 mph81%30.39 "Hg10 mi
6:20 am37 °FPassing clouds.13 mph75%30.39 "HgN/A
5:50 am37 °FPassing clouds.15 mph75%30.36 "HgN/A
5:20 am37 °FPassing clouds.15 mph75%30.36 "HgN/A
4:50 am37 °FPassing clouds.13 mph81%30.36 "HgN/A
4:20 am37 °FPassing clouds.10 mph75%30.33 "HgN/A
3:50 am39 °FPassing clouds.13 mph70%30.33 "HgN/A
2:50 am39 °FPassing clouds.13 mph70%30.30 "HgN/A
1:50 am39 °FPassing clouds.14 mph70%30.27 "HgN/A
12:50 am39 °FPassing clouds.17 mph70%30.24 "HgN/A
12:20 am39 °FPassing clouds.21 mph70%30.24 "HgN/A
11:50 pm
Sun, Mar 24
39 °FPassing clouds.21 mph70%30.24 "HgN/A
11:20 pm39 °FPassing clouds.20 mph75%30.24 "HgN/A
10:50 pm39 °FPassing clouds.17 mph75%30.24 "HgN/A
10:20 pm39 °FPassing clouds.17 mph81%30.24 "HgN/A
9:50 pm41 °FPassing clouds.20 mph70%30.24 "HgN/A
9:20 pm41 °FPassing clouds.18 mph70%30.21 "HgN/A
8:50 pm41 °FPassing clouds.18 mph70%30.21 "HgN/A
8:20 pm41 °FPassing clouds.18 mph76%30.21 "HgN/A
7:50 pm43 °FPassing clouds.16 mph71%30.21 "HgN/A
7:20 pm43 °FPassing clouds.16 mph71%30.21 "HgN/A
6:50 pm43 °FPassing clouds.17 mph71%30.21 "HgN/A
6:20 pm43 °FPassing clouds.14 mph81%30.18 "HgN/A
5:50 pm46 °FScattered showers. Partly sunny.18 mph66%30.18 "HgN/A
5:20 pm46 °FPassing clouds.20 mph71%30.18 "HgN/A
4:50 pm46 °FPassing clouds.22 mph82%30.15 "HgN/A
4:20 pm48 °FPassing clouds.22 mph76%30.15 "HgN/A
3:50 pm46 °FPassing clouds.23 mph82%30.18 "HgN/A
3:20 pm48 °FScattered showers. Scattered clouds.22 mph71%30.18 "HgN/A
2:50 pm48 °FScattered clouds.22 mph71%30.18 "HgN/A
2:20 pm46 °FLight rain. Partly sunny.23 mph76%30.18 "HgN/A
1:20 pm50 °FPartly sunny.25 mph62%30.21 "HgN/A
12:50 pm48 °FPartly sunny.26 mph62%30.21 "HgN/A
12:20 pm46 °FPartly sunny.22 mph66%30.24 "HgN/A
Weather by CustomWeather, © 2019

See weather overview